Regional Weather Roundup
Issued by NWS Grand Forks, ND

Home | Current Version | Previous Version | Graphics & Text | Print | Product List | Glossary On
Versions: 1 2 3 4 5 6 7 8 9 10 11 12 13 14 15 16 17 18 19 20 21 22 23 24 25 26 27 28 29 30 31 32 33 34 35 36 37 38 39 40 41 42 43 44 45 46 47 48 49 50
000
ASUS43 KFGF 022331
RWRFGF
PRAIRIE TO PINES  WEATHER ROUNDUP
NATIONAL WEATHER SERVICE EASTERN NORTH DAKOTA/GRAND FORKS ND
600 PM CDT TUE JUN 02 2015

 **SATELLITE DATA USED TO AUGMENT SKY COVER AT AUTOMATED STATIONS**
 *****  WEATHER ACROSS EASTERN NORTH DAKOTA  *****

CITY           SKY/WX    TMP DP  RH WIND       PRES   REMARKS
GRAND FORKS    CLOUDY    69  60  73 E5        29.76F
GRAND FRKS AFB CLOUDY    68  60  75 NE5       29.77F
GRAND FRKS NWS   N/A     68 N/A N/A NE5         N/A
DEVILS LAKE    CLOUDY    63  57  82 E15       29.77F
FARGO          CLOUDY    78  62  57 S13       29.73F
WAHPETON ARPT  MOCLDY    79  59  50 S14       29.74F
$$

 ***** WEATHER ACROSS CENTRAL AND WESTERN NORTH DAKOTA  *****

CITY           SKY/WX    TMP DP  RH WIND       PRES   REMARKS
BISMARCK       LGT RAIN  72  65  78 E7        29.70F
MINOT          CLOUDY    61  57  87 NE14      29.76F
JAMESTOWN      PTSUNNY   77  63  61 SE8       29.70F
MINOT AFB      CLOUDY    60  60 100 E14       29.76F
GARRISON         N/A     69  62  78 E14G25    29.73F
WILLISTON      RAIN      56  53  90 N22G29    29.81R FOG
DICKINSON      PTSUNNY   71  56  58 W16G25    29.77R
HETTINGER      SUNNY     75  56  51 NW18G26   29.79R
$$

 *****  OTHER AIRPORT OBSERVATIONS IN OUR AREA  *****

CITY           SKY/WX    TMP DP  RH WIND       PRES   REMARKS
WALHALLA       FAIR      63  63 100 MISG      29.82R
GRAFTON AIRPOR MOCLDY    61  61 100 N9        29.80F THUNDER
VALLEY CITY AR CLOUDY    77  64  65 S9        29.72S
CANDO          CLOUDY    61  59  94 NE9       29.81S
CAVALIER APRT  CLOUDY    61  61 100 E5        29.81S
GWINNER        NOT AVBL
SHEYENNE NWR     N/A     80  64  57 S7        29.95S
ROLLA          CLOUDY    57  57 100 NE10      29.85R
 ***** THE ABOVE OBSERVATIONS ARE NON NWS ARE NOT QUALITY
       CONTROLLED AND MAY MIS-REPORT RAIN FOR SNOW...
$$

  *****  WEATHER ACROSS NORTHERN MINNESOTA  *****

CITY           SKY/WX    TMP DP  RH WIND       PRES   REMARKS
FLAG ISLAND    RAIN      57  57 100 CALM      29.83S
WARROAD        HVY RAIN  61  57  88 CALM      29.84R
ROSEAU         LGT RAIN  63  57  82 CALM      29.83S
HALLOCK        CLOUDY    63  61  94 E7        29.80S
THF RVR FALLS  CLOUDY    68  59  73 CALM      29.81F
BAUDETTE       CLOUDY    62  59  90 E6        29.82F
WASKISH        CLOUDY    66  59  77 CALM      29.83S
CROOKSTON      PTSUNNY   70  61  73 E5        29.78F
STEPHEN NDAWN    N/A     64  63  94 N6          N/A
GREENBUSH NDAW   N/A     61  61 100 N8          N/A
$$
  *****  WEATHER ACROSS CENTRAL AND WEST MINNESOTA  *****

CITY           SKY/WX    TMP DP  RH WIND       PRES   REMARKS
FOSSTON        CLOUDY    70  59  68 S7        29.81F
BEMIDJI        CLOUDY    70  53  55 S13       29.85R
PARK RAPIDS    CLOUDY    72  52  49 S17       29.85S
ELBOW LAKE     MOCLDY    78  60  54 S22G30    29.77F
WADENA         PTSUNNY   73  54  49 SE14      29.82F
DETROIT LAKES  MOSUNNY   72  55  56 SE13      29.81F
MOORHEAD       MOSUNNY   79  61  53 S10G16    29.74F
FERGUS FALLS   CLOUDY    79  61  53 S18G24    29.77S
MORRIS MN      MOSUNNY   82  57  42 S24G31    29.76F
STAPLES        PTSUNNY   72  54  53 S12G17    29.85S
$$
  *****  WEATHER ELSEWHERE ACROSS MINNESOTA  *****

CITY           SKY/WX    TMP DP  RH WIND       PRES   REMARKS
DULUTH         PTSUNNY   65  45  48 S8        29.94R
INTRNTL FALLS  LGT RAIN  63  59  87 CALM      29.85S
ELY            CLOUDY    72  45  37 S10G16    29.90R
CLOQUET        PTSUNNY   72  48  43 E7G18     29.92S
WHEATON        MOSUNNY   79  61  53 S15G24    29.76S
BRAINERD       CLOUDY    69  52  54 S12G21    29.88F
HIBBING        CLOUDY    73  47  39 S8        29.89S
ALEXANDRIA     MOSUNNY   79  56  45 S20G26    29.83F
SAINT CLOUD    CLOUDY    75  56  51 SE15G24   29.87F
MINNEAPOLIS    PTSUNNY   75  52  44 S17G24    29.92F
$$

  *****  WEATHER ACROSS SOUTH DAKOTA  *****

CITY           SKY/WX    TMP DP  RH WIND       PRES   REMARKS
SIOUX FALLS    MOSUNNY   78  62  57 S20G28    29.82F
BROOKINGS      SUNNY     79  61  53 S22G30    29.80F
WATERTOWN      SUNNY     80  61  52 S18G32    29.76S
HURON          SUNNY     85  62  46 S18G28    29.71F
SISSETON         N/A     83  61  47 S21G26    29.73S
ABERDEEN       PTSUNNY   87  63  44 S16       29.68F
MITCHELL       SUNNY     84  62  47 S18       29.75F
PIERRE         MOSUNNY   87  57  35 W12       29.69S
MOBRIDGE       MOSUNNY   86  61  42 NW10      29.67S
RAPID CITY     LGT RAIN  71  62  73 N3        29.83R
$$

  *****  SOME WEATHER IN NEARBY STATES *****

CITY           SKY/WX    TMP DP  RH WIND       PRES   REMARKS
GLASGOW MT     CLOUDY    61  51  70 NE8       29.90S
GREAT FALLS MT LGT RAIN  59  52  77 N10       29.90R
CHEYENNE WY    MOSUNNY   79  36  21 SW7       29.94F
SCOTTSBLUFF NE MOSUNNY   86  57  37 SE7       29.80R
OMAHA NE       CLOUDY    74  61  63 SE22      29.91F
DES MOINES IA  PTSUNNY   73  55  53 SE15      29.99F
DAVENPORT IA   PTSUNNY   74  47  38 S12       30.05F
CHICAGO IL     MOSUNNY   69  46  43 E8        30.07F
EAU CLAIRE WI  PTSUNNY   73  51  46 S17       29.98F
LA CROSSE WI   CLOUDY    75  50  41 S12       30.00F
$$

  *****  SOME NATIONAL WEATHER *****

CITY           SKY/WX    TMP DP  RH WIND       PRES   REMARKS
LA GUARDIA NY  LGT RAIN  54  50  87 NE9       30.15R
RALEIGH NC     CLOUDY    77  68  73 CALM      29.96S
ATLANTA GA     MOSUNNY   82  61  47 W8        29.93F THUNDER
NEW ORLEANS LA MOSUNNY   88  53  30 N5        29.91S
OKLAHOMA CITY  MOSUNNY   86  65  49 S16G23    29.90F
ALBUQUERQUE NM MOSUNNY   89  20   8 SW12      29.99F
SALT LAKE CITY MOSUNNY   80  44  27 N12       29.92S
LOS ANGELES CA MOSUNNY   66  57  72 W13       29.95F
BOISE ID       LGT RAIN  71  44  37 N8        29.96S
SEATTLE WA     CLOUDY    61  50  67 SW10      30.04S
$$

*** WEATHER ACROSS MANITOBA...SASKATCHEWAN AND ONTARIO ***
                ***ONTARIO***

CITY           SKY/WX    TMP DP  RH WIND       PRES   REMARKS
GERALDTON      PTSUNNY   61  37  41 S15G23    29.98S
THUNDER BAY    CLOUDY    55  41  58 E9        29.98F
SIOUX LOOKOUT  CLOUDY    59  54  82 SW9       29.88S
TORONTO        MOSUNNY   63  43  48 S9        30.15S
BIG TROUT LK   SUNNY     66  37  34 NW15      29.75S
PICKLE LAKE    PTSUNNY   64  50  59 SW13G21   29.83S
DRYDEN         CLOUDY    57  55  94 S8        29.87S
KENORA         LGT RAIN  59  57  94 SW8       29.85F FOG
$$
                *** MANITOBA***

CITY           SKY/WX    TMP DP  RH WIND       PRES   REMARKS
BRANDON        LGT RAIN  63  45  51 NE18      29.86S
DAUPHIN        SUNNY     63  34  34 NE13G18   29.92S
ISLAND LAKE    MOSUNNY   63  37  39 W7        29.83S
PILOT MOUND      N/A     61  55  82 NE9         N/A
THE PAS        MOSUNNY   63  27  25 NW7       29.93F
THOMPSON       MOSUNNY   55  30  38 N16G25    29.86R
WINNIPEG       CLOUDY    66  45  45 NE16G22   29.84S
LYNN LAKE      SUNNY     54  27  35 NW17G29   29.91R
CHURCHILL      LGT RAIN  39  36  87 W24G32    29.58R
GILLAM         PTSUNNY   48  34  57 W23G33    29.79R
$$
                ***SASKATCHEWAN***

CITY           SKY/WX    TMP DP  RH WIND       PRES   REMARKS
ESTEVAN        LGT RAIN  55  54  94 N12       29.87R
KINDERSLEY     CLOUDY    64  34  32 E13G21    29.97S
LLOYDMINSTER   CLOUDY    59  36  41 E12       29.99F
PRINCE ALBERT  PTSUNNY   64  30  27 VRB2      29.97F
REGINA         CLOUDY    64  36  34 NE7G17    29.93F
YORKTON        SUNNY     66  30  26 NE12      29.90S
N. BATTLEFORD  MOSUNNY   59  27  29 NE7       30.02F
LA RONGE       MOSUNNY   63  27  25 NW6G17    29.98F
SASKATOON      PTSUNNY   64  28  25 NE10      29.99F
SWIFT CURRENT  MOSUNNY   61  39  44 E13       29.95F
$$
NOTE: THESE ARE AUTOMATED STATIONS WITH LIMITED QUALITY CONTROL
      "FAIR" INDICATES FEW OR NO CLOUDS BELOW 12,000 FEET WITH NO
      SIGNIFICANT WEATHER AND/OR OBSTRUCTIONS TO VISIBILITY.
      SKY/WX - SKY CONDITION AND SIGNIFICANT WEATHER.
      TMP - AIR TEMPERATURE.    DP   - DEWPOINT TEMPERATURE.
      RH  - RELATIVE HUMIDITY.  PRES - PRESSURE.
      HX  - HEAT INDEX.         WCI  - WIND CHILL INDEX.
$



USA.gov is the U.S. government's official web portal to all federal, state and local government web resources and services.